| time (UTC) | temp F | wind direction | speed MPH | gust MPH | rain 1hr in | rain 24hr in | rain mn in | humidity % | barometer mb |
| 20260901112546 | 58 | 109 | 2.0 | 6.0 | 0.00 | 0.00 | 0.00 | 82 | 1008.4 |
| 20260901112048 | 58 | 101 | 2.0 | 4.0 | 0.00 | 0.00 | 0.00 | 82 | 1008.3 |
| 20260901111551 | 58 | 101 | 1.0 | 4.0 | 0.00 | 0.00 | 0.00 | 82 | 1008.2 |
| 20260901111044 | 58 | 101 | 2.0 | 4.0 | 0.00 | 0.00 | 0.00 | 82 | 1008.2 |
| 20260901110543 | 58 | 101 | 1.0 | 4.0 | 0.00 | 0.00 | 0.00 | 82 | 1008.2 |
| 20260901110046 | 58 | 101 | 0.0 | 2.0 | 0.00 | 0.00 | 0.00 | 82 | 1008.1 |
| 20260901105543 | 58 | 101 | 0.0 | 6.0 | 0.00 | 0.00 | 0.00 | 82 | 1008.1 |
| 20260901105042 | 58 | 101 | 0.0 | 6.0 | 0.00 | 0.00 | 0.00 | 82 | 1008.1 |
| 20260901104542 | 58 | 101 | 1.0 | 3.0 | 0.00 | 0.00 | 0.00 | 81 | 1008.2 |
| 20260901104046 | 59 | 101 | 0.0 | 3.0 | 0.00 | 0.00 | 0.00 | 81 | 1008.1 |
| 20260901103540 | 59 | 101 | 0.0 | 1.0 | 0.00 | 0.00 | 0.00 | 81 | 1008.2 |
| 20260901103042 | 59 | 101 | 0.0 | 1.0 | 0.00 | 0.00 | 0.00 | 81 | 1008.1 |
| 20260901102539 | 59 | 101 | 0.0 | 2.0 | 0.00 | 0.00 | 0.00 | 80 | 1008.1 |
| 20260901102040 | 59 | 101 | 0.0 | 3.0 | 0.00 | 0.00 | 0.00 | 80 | 1008.1 |
| 20260901101540 | 59 | 101 | 1.0 | 3.0 | 0.00 | 0.00 | 0.00 | 80 | 1008.1 |
| 20260901101037 | 59 | 101 | 0.0 | 2.0 | 0.00 | 0.00 | 0.00 | 80 | 1008.0 |
| 20260901100541 | 59 | 101 | 0.0 | 3.0 | 0.00 | 0.00 | 0.00 | 80 | 1008.0 |
| 20260901100038 | 59 | 101 | 1.0 | 3.0 | 0.00 | 0.00 | 0.00 | 80 | 1008.0 |
| 20260901095535 | 60 | 101 | 0.0 | 2.0 | 0.00 | 0.00 | 0.00 | 80 | 1007.9 |
| 20260901095035 | 60 | 101 | 0.0 | 3.0 | 0.00 | 0.00 | 0.00 | 80 | 1007.9 |
| 20260901094534 | 60 | 101 | 0.0 | 4.0 | 0.00 | 0.00 | 0.00 | 80 | 1007.8 |
| 20260901094034 | 60 | 98 | 1.0 | 6.0 | 0.00 | 0.00 | 0.00 | 80 | 1007.8 |
| 20260901093532 | 60 | 109 | 0.0 | 6.0 | 0.00 | 0.00 | 0.00 | 80 | 1007.8 |
| 20260901093032 | 60 | 148 | 0.0 | 2.0 | 0.00 | 0.00 | 0.00 | 79 | 1007.8 |
| 20260901092533 | 60 | 148 | 0.0 | 3.0 | 0.00 | 0.00 | 0.00 | 79 | 1007.7 |
| 20260901092031 | 60 | 149 | 0.0 | 5.0 | 0.00 | 0.00 | 0.00 | 79 | 1007.5 |
| 20260901091533 | 60 | 149 | 1.0 | 5.0 | 0.00 | 0.00 | 0.00 | 79 | 1007.5 |
| 20260901091030 | 60 | 109 | 1.0 | 6.0 | 0.00 | 0.00 | 0.00 | 79 | 1007.5 |
| 20260901090533 | 60 | 109 | 2.0 | 6.0 | 0.00 | 0.00 | 0.00 | 79 | 1007.4 |
| 20260901090032 | 60 | 109 | 1.0 | 4.0 | 0.00 | 0.00 | 0.00 | 79 | 1007.3 |
| 20260901085528 | 60 | 109 | 0.0 | 4.0 | 0.00 | 0.00 | 0.00 | 80 | 1007.3 |
| 20260901085028 | 60 | 109 | 0.0 | 3.0 | 0.00 | 0.00 | 0.00 | 79 | 1007.3 |
| 20260901084528 | 60 | 109 | 0.0 | 7.0 | 0.00 | 0.00 | 0.00 | 79 | 1007.3 |
| 20260901084027 | 60 | 109 | 2.0 | 7.0 | 0.00 | 0.00 | 0.00 | 79 | 1007.3 |
| 20260901083531 | 61 | 109 | 1.0 | 6.0 | 0.00 | 0.00 | 0.00 | 79 | 1007.3 |
| 20260901083026 | 61 | 109 | 2.0 | 6.0 | 0.00 | 0.00 | 0.00 | 79 | 1007.5 |
| 20260901082526 | 61 | 107 | 2.0 | 6.0 | 0.00 | 0.00 | 0.00 | 79 | 1007.5 |
| 20260901082027 | 61 | 107 | 1.0 | 6.0 | 0.00 | 0.00 | 0.00 | 78 | 1007.4 |
| 20260901081524 | 61 | 104 | 2.0 | 6.0 | 0.00 | 0.00 | 0.00 | 78 | 1007.4 |
| 20260901081025 | 61 | 103 | 1.0 | 4.0 | 0.00 | 0.00 | 0.00 | 78 | 1007.3 |
| 20260901080523 | 61 | 103 | 2.0 | 4.0 | 0.00 | 0.00 | 0.00 | 78 | 1007.3 |
| 20260901080023 | 62 | 103 | 1.0 | 4.0 | 0.00 | 0.00 | 0.00 | 78 | 1007.3 |
| 20260901075522 | 62 | 103 | 1.0 | 6.0 | 0.00 | 0.00 | 0.00 | 77 | 1007.2 |
| 20260901075023 | 62 | 103 | 1.0 | 6.0 | 0.00 | 0.00 | 0.00 | 77 | 1007.2 |
| 20260901074520 | 62 | 107 | 1.0 | 7.0 | 0.00 | 0.00 | 0.00 | 77 | 1007.2 |
| 20260901074024 | 62 | 107 | 2.0 | 7.0 | 0.00 | 0.00 | 0.00 | 76 | 1007.2 |
| 20260901073518 | 62 | 96 | 4.0 | 7.0 | 0.00 | 0.00 | 0.00 | 76 | 1007.0 |
| 20260901073017 | 63 | 113 | 0.0 | 6.0 | 0.00 | 0.00 | 0.00 | 76 | 1007.0 |
| 20260901072515 | 63 | 115 | 2.0 | 6.0 | 0.00 | 0.00 | 0.00 | 75 | 1007.0 |
| 20260901072014 | 63 | 98 | 1.0 | 6.0 | 0.00 | 0.00 | 0.00 | 75 | 1006.9 |
| 20260901071514 | 64 | 98 | 1.0 | 8.0 | 0.00 | 0.00 | 0.00 | 74 | 1006.9 |
| 20260901071011 | 64 | 110 | 1.0 | 3.0 | 0.00 | 0.00 | 0.00 | 73 | 1006.8 |
| 20260901070512 | 64 | 110 | 1.0 | 3.0 | 0.00 | 0.00 | 0.00 | 73 | 1006.8 |
| 20260901070014 | 65 | 109 | 0.0 | 4.0 | 0.00 | 0.00 | 0.00 | 73 | 1006.7 |
| 20260901065509 | 65 | 109 | 1.0 | 6.0 | 0.00 | 0.00 | 0.00 | 72 | 1006.6 |
| 20260901065009 | 65 | 109 | 1.0 | 6.0 | 0.00 | 0.00 | 0.00 | 71 | 1006.6 |
| 20260901064508 | 66 | 109 | 2.0 | 6.0 | 0.00 | 0.00 | 0.00 | 71 | 1006.5 |
| 20260901064009 | 66 | 119 | 1.0 | 6.0 | 0.00 | 0.00 | 0.00 | 70 | 1006.2 |
| 20260901063510 | 66 | 134 | 1.0 | 5.0 | 0.00 | 0.00 | 0.00 | 71 | 1006.2 |
| 20260901063015 | 67 | 168 | 1.0 | 5.0 | 0.00 | 0.00 | 0.00 | 71 | 1006.1 |
| 20260901062509 | 67 | 150 | 0.0 | 2.0 | 0.00 | 0.00 | 0.00 | 71 | 1006.1 |
| 20260901062009 | 67 | 150 | 0.0 | 2.0 | 0.00 | 0.00 | 0.00 | 71 | 1006.0 |
| 20260901061508 | 67 | 150 | 0.0 | 0.0 | 0.00 | 0.00 | 0.00 | 71 | 1006.0 |
| 20260901061008 | 67 | 150 | 0.0 | 0.0 | 0.00 | 0.00 | 0.00 | 71 | 1005.9 |
| 20260901060508 | 68 | 150 | 0.0 | 0.0 | 0.00 | 0.00 | 0.00 | 70 | 1005.9 |
| 20260901060023 | 68 | 150 | 0.0 | 0.0 | 0.00 | 0.00 | 0.00 | 69 | 1005.8 |
| 20260901055506 | 68 | 150 | 0.0 | 0.0 | 0.00 | 0.00 | 0.00 | 68 | 1005.8 |
| 20260901055006 | 68 | 150 | 0.0 | 0.0 | 0.00 | 0.00 | 0.00 | 69 | 1005.7 |
| 20260901054506 | 69 | 150 | 0.0 | 0.0 | 0.00 | 0.00 | 0.00 | 67 | 1005.6 |
| 20260901054008 | 69 | 150 | 0.0 | 0.0 | 0.00 | 0.00 | 0.00 | 67 | 1005.5 |
| 20260901053508 | 69 | 150 | 0.0 | 0.0 | 0.00 | 0.00 | 0.00 | 67 | 1005.6 |
| 20260901053006 | 69 | 150 | 0.0 | 0.0 | 0.00 | 0.00 | 0.00 | 64 | 1005.6 |
| 20260901052506 | 69 | 150 | 0.0 | 0.0 | 0.00 | 0.00 | 0.00 | 65 | 1005.5 |
| 20260901052009 | 70 | 150 | 0.0 | 2.0 | 0.00 | 0.00 | 0.00 | 67 | 1005.5 |
| 20260901051507 | 70 | 150 | 0.0 | 2.0 | 0.00 | 0.00 | 0.00 | 66 | 1005.6 |
| 20260901051006 | 70 | 150 | 0.0 | 1.0 | 0.00 | 0.00 | 0.00 | 65 | 1005.5 |
| 20260901050505 | 70 | 150 | 0.0 | 1.0 | 0.00 | 0.00 | 0.00 | 65 | 1005.5 |
| 20260901050007 | 70 | 150 | 0.0 | 0.0 | 0.00 | 0.00 | 0.00 | 63 | 1005.4 |
| 20260901045504 | 70 | 150 | 0.0 | 0.0 | 0.00 | 0.00 | 0.00 | 63 | 1005.4 |
| 20260901045004 | 70 | 150 | 0.0 | 0.0 | 0.00 | 0.00 | 0.00 | 63 | 1005.4 |
| 20260901044507 | 70 | 150 | 0.0 | 0.0 | 0.00 | 0.00 | 0.00 | 62 | 1005.2 |
| 20260901044105 | 70 | 150 | 0.0 | 0.0 | 0.00 | 0.00 | 0.00 | 61 | 1005.2 |
| 20260901043503 | 71 | 150 | 0.0 | 0.0 | 0.00 | 0.00 | 0.00 | 62 | 1005.2 |
| 20260901043006 | 71 | 150 | 0.0 | 0.0 | 0.00 | 0.00 | 0.00 | 61 | 1005.2 |
| 20260901042503 | 72 | 150 | 0.0 | 0.0 | 0.00 | 0.00 | 0.00 | 60 | 1005.0 |
| 20260901042002 | 72 | 150 | 0.0 | 0.0 | 0.00 | 0.00 | 0.00 | 59 | 1004.9 |
| 20260901041502 | 72 | 150 | 0.0 | 0.0 | 0.00 | 0.00 | 0.00 | 58 | 1004.8 |
| 20260901041003 | 73 | 150 | 0.0 | 0.0 | 0.00 | 0.00 | 0.00 | 58 | 1004.8 |
| 20260901040503 | 74 | 150 | 0.0 | 0.0 | 0.00 | 0.00 | 0.00 | 57 | 1004.6 |
| 20260901040003 | 74 | 150 | 0.0 | 0.0 | 0.00 | 0.00 | 0.00 | 57 | 1004.6 |
| 20260901035502 | 74 | 150 | 0.0 | 0.0 | 0.00 | 0.00 | 0.00 | 56 | 1004.6 |
| 20260901035001 | 74 | 150 | 0.0 | 0.0 | 0.00 | 0.00 | 0.00 | 56 | 1004.5 |
| 20260901034501 | 74 | 150 | 0.0 | 0.0 | 0.00 | 0.00 | 0.00 | 55 | 1004.4 |
| 20260901034002 | 74 | 150 | 0.0 | 0.0 | 0.00 | 0.00 | 0.00 | 55 | 1004.3 |
| 20260901033503 | 75 | 150 | 0.0 | 0.0 | 0.00 | 0.00 | 0.00 | 55 | 1004.2 |
| 20260901033001 | 75 | 150 | 0.0 | 0.0 | 0.00 | 0.00 | 0.00 | 55 | 1004.2 |
| 20260901032501 | 75 | 150 | 0.0 | 0.0 | 0.00 | 0.00 | 0.00 | 55 | 1004.2 |
| 20260901032002 | 76 | 150 | 0.0 | 0.0 | 0.00 | 0.00 | 0.00 | 54 | 1004.1 |
| 20260901031501 | 76 | 150 | 0.0 | 0.0 | 0.00 | 0.00 | 0.00 | 54 | 1004.0 |
| 20260901031001 | 77 | 150 | 0.0 | 0.0 | 0.00 | 0.00 | 0.00 | 53 | 1004.0 |
| 20260901030500 | 77 | 150 | 0.0 | 0.0 | 0.00 | 0.00 | 0.00 | 52 | 1004.0 |
| 20260901030110 | 78 | 150 | 0.0 | 0.0 | 0.00 | 0.00 | 0.00 | 51 | 1003.9 |
| 20260901025600 | 78 | 150 | 0.0 | 1.0 | 0.00 | 0.00 | 0.00 | 50 | 1004.0 |
| 20260901025103 | 79 | 150 | 0.0 | 1.0 | 0.00 | 0.00 | 0.00 | 50 | 1004.0 |
| 20260901024606 | 79 | 150 | 0.0 | 2.0 | 0.00 | 0.00 | 0.00 | 48 | 1003.9 |
| 20260901024100 | 80 | 150 | 0.0 | 2.0 | 0.00 | 0.00 | 0.00 | 47 | 1004.0 |
| 20260901024002 | 80 | 150 | 0.0 | 5.0 | 0.00 | 0.00 | 0.00 | 47 | 1004.0 |
| 20260901023559 | 80 | 150 | 0.0 | 5.0 | 0.00 | 0.00 | 0.00 | 47 | 1004.0 |
| 20260901023105 | 80 | 150 | 0.0 | 3.0 | 0.00 | 0.00 | 0.00 | 47 | 1003.9 |
| 20260901022559 | 81 | 150 | 1.0 | 5.0 | 0.00 | 0.00 | 0.00 | 46 | 1003.9 |
| 20260901022059 | 81 | 155 | 1.0 | 5.0 | 0.00 | 0.00 | 0.00 | 45 | 1003.9 |
| 20260901021559 | 82 | 155 | 1.0 | 6.0 | 0.00 | 0.00 | 0.00 | 44 | 1003.9 |
| 20260901021059 | 83 | 154 | 2.0 | 6.0 | 0.00 | 0.00 | 0.00 | 44 | 1003.9 |
| 20260901020559 | 83 | 158 | 2.0 | 6.0 | 0.00 | 0.00 | 0.00 | 44 | 1003.9 |
| 20260901020100 | 84 | 167 | 2.0 | 5.0 | 0.00 | 0.00 | 0.00 | 43 | 1003.9 |
| 20260901015557 | 85 | 156 | 1.0 | 3.0 | 0.00 | 0.00 | 0.00 | 42 | 1003.9 |
| 20260901015057 | 85 | 214 | 0.0 | 4.0 | 0.00 | 0.00 | 0.00 | 41 | 1003.8 |
| 20260901014558 | 86 | 215 | 1.0 | 4.0 | 0.00 | 0.00 | 0.00 | 39 | 1003.8 |
| 20260901014058 | 87 | 215 | 0.0 | 3.0 | 0.00 | 0.00 | 0.00 | 36 | 1003.7 |
| 20260901013558 | 88 | 215 | 0.0 | 3.0 | 0.00 | 0.00 | 0.00 | 33 | 1003.7 |
| 20260901013102 | 88 | 215 | 0.0 | 3.0 | 0.00 | 0.00 | 0.00 | 35 | 1003.7 |
| 20260901012556 | 87 | 215 | 0.0 | 4.0 | 0.00 | 0.00 | 0.00 | 37 | 1003.7 |
| 20260901012055 | 87 | 215 | 0.0 | 4.0 | 0.00 | 0.00 | 0.00 | 35 | 1003.8 |
| 20260901011555 | 88 | 213 | 1.0 | 4.0 | 0.00 | 0.00 | 0.00 | 35 | 1003.8 |
| 20260901011055 | 88 | 214 | 1.0 | 5.0 | 0.00 | 0.00 | 0.00 | 37 | 1003.9 |
| 20260901010555 | 88 | 214 | 2.0 | 5.0 | 0.00 | 0.00 | 0.00 | 35 | 1003.9 |
| 20260901010108 | 88 | 209 | 1.0 | 3.0 | 0.00 | 0.00 | 0.00 | 33 | 1003.9 |
| 20260901005553 | 88 | 209 | 0.0 | 5.0 | 0.00 | 0.00 | 0.00 | 34 | 1003.9 |
| 20260901005052 | 88 | 209 | 0.0 | 5.0 | 0.00 | 0.00 | 0.00 | 34 | 1003.9 |
| 20260901004552 | 88 | 192 | 1.0 | 4.0 | 0.00 | 0.00 | 0.00 | 36 | 1003.9 |
| 20260901004051 | 89 | 220 | 0.0 | 5.0 | 0.00 | 0.00 | 0.00 | 34 | 1003.9 |
| 20260901003551 | 89 | 218 | 1.0 | 5.0 | 0.00 | 0.00 | 0.00 | 36 | 1004.0 |
| 20260901003051 | 89 | 162 | 2.0 | 5.0 | 0.00 | 0.00 | 0.00 | 33 | 1004.0 |
| 20260901002551 | 89 | 205 | 1.0 | 4.0 | 0.00 | 0.00 | 0.00 | 35 | 1004.0 |
| 20260901002050 | 90 | 213 | 0.0 | 4.0 | 0.00 | 0.00 | 0.00 | 34 | 1004.0 |
| 20260901001548 | 89 | 213 | 1.0 | 4.0 | 0.00 | 0.00 | 0.00 | 35 | 1004.0 |
| 20260901001051 | 88 | 213 | 1.0 | 6.0 | 0.00 | 0.00 | 0.00 | 36 | 1004.1 |
| 20260901000547 | 88 | 215 | 3.0 | 6.0 | 0.00 | 0.00 | 0.00 | 37 | 1004.1 |
| 20260901000046 | 88 | 295 | 1.0 | 5.0 | 0.00 | 0.00 | 0.00 | 36 | 1004.1 |
| 20260831235545 | 88 | 198 | 2.0 | 5.0 | 0.00 | 0.00 | 0.00 | 37 | 1004.1 |
| 20260831235045 | 88 | 198 | 0.0 | 5.0 | 0.00 | 0.00 | 0.00 | 39 | 1004.1 |
| 20260831234545 | 88 | 198 | 2.0 | 6.0 | 0.00 | 0.00 | 0.00 | 37 | 1004.2 |
| 20260831234044 | 88 | 212 | 1.0 | 5.0 | 0.00 | 0.00 | 0.00 | 38 | 1004.1 |
| 20260831233543 | 88 | 196 | 1.0 | 5.0 | 0.00 | 0.00 | 0.00 | 38 | 1004.1 |
| 20260831233047 | 88 | 149 | 0.0 | 3.0 | 0.00 | 0.00 | 0.00 | 37 | 1004.2 |
| 20260831232544 | 88 | 149 | 0.0 | 6.0 | 0.00 | 0.00 | 0.00 | 35 | 1004.1 |
| 20260831232041 | 88 | 148 | 1.0 | 6.0 | 0.00 | 0.00 | 0.00 | 37 | 1004.2 |
| 20260831231541 | 87 | 192 | 0.0 | 3.0 | 0.00 | 0.00 | 0.00 | 36 | 1004.2 |
| 20260831231045 | 88 | 195 | 1.0 | 4.0 | 0.00 | 0.00 | 0.00 | 35 | 1004.3 |
| 20260831230539 | 87 | 192 | 1.0 | 4.0 | 0.00 | 0.00 | 0.00 | 37 | 1004.3 |
| 20260831230038 | 87 | 201 | 0.0 | 4.0 | 0.00 | 0.00 | 0.00 | 36 | 1004.4 |
| 20260831225536 | 87 | 198 | 1.0 | 5.0 | 0.00 | 0.00 | 0.00 | 39 | 1004.5 |
| 20260831225037 | 87 | 99 | 0.0 | 4.0 | 0.00 | 0.00 | 0.00 | 36 | 1004.5 |
| 20260831224535 | 88 | 127 | 1.0 | 7.0 | 0.00 | 0.00 | 0.00 | 37 | 1004.6 |
| 20260831224034 | 88 | 215 | 3.0 | 7.0 | 0.00 | 0.00 | 0.00 | 37 | 1004.6 |
| 20260831223536 | 88 | 208 | 2.0 | 6.0 | 0.00 | 0.00 | 0.00 | 37 | 1004.7 |
| 20260831223032 | 87 | 197 | 2.0 | 5.0 | 0.00 | 0.00 | 0.00 | 39 | 1004.7 |
| 20260831222531 | 87 | 147 | 1.0 | 5.0 | 0.00 | 0.00 | 0.00 | 38 | 1004.8 |
| 20260831222029 | 88 | 194 | 1.0 | 3.0 | 0.00 | 0.00 | 0.00 | 38 | 1004.7 |
| 20260831221535 | 87 | 195 | 0.0 | 3.0 | 0.00 | 0.00 | 0.00 | 41 | 1004.8 |
| 20260831221027 | 86 | 195 | 1.0 | 3.0 | 0.00 | 0.00 | 0.00 | 40 | 1004.8 |
| 20260831220531 | 85 | 292 | 0.0 | 6.0 | 0.00 | 0.00 | 0.00 | 42 | 1004.9 |
| 20260831220027 | 85 | 292 | 1.0 | 6.0 | 0.00 | 0.00 | 0.00 | 41 | 1004.9 |
| 20260831215525 | 86 | 275 | 1.0 | 4.0 | 0.00 | 0.00 | 0.00 | 40 | 1005.0 |
| 20260831215025 | 87 | 275 | 2.0 | 4.0 | 0.00 | 0.00 | 0.00 | 40 | 1005.0 |
| 20260831214524 | 87 | 218 | 0.0 | 3.0 | 0.00 | 0.00 | 0.00 | 41 | 1005.1 |
| 20260831214022 | 86 | 221 | 2.0 | 4.0 | 0.00 | 0.00 | 0.00 | 41 | 1005.1 |
| 20260831213521 | 85 | 114 | 0.0 | 5.0 | 0.00 | 0.00 | 0.00 | 43 | 1005.2 |
| 20260831213019 | 85 | 137 | 1.0 | 5.0 | 0.00 | 0.00 | 0.00 | 41 | 1005.3 |
| 20260831212519 | 84 | 198 | 0.0 | 4.0 | 0.00 | 0.00 | 0.00 | 43 | 1005.3 |
| 20260831212018 | 84 | 128 | 0.0 | 3.0 | 0.00 | 0.00 | 0.00 | 42 | 1005.4 |
| 20260831211518 | 83 | 128 | 1.0 | 4.0 | 0.00 | 0.00 | 0.00 | 43 | 1005.4 |
| 20260831211017 | 84 | 128 | 2.0 | 4.0 | 0.00 | 0.00 | 0.00 | 42 | 1005.5 |
| 20260831210516 | 84 | 105 | 1.0 | 4.0 | 0.00 | 0.00 | 0.00 | 40 | 1005.4 |
| 20260831210018 | 85 | 238 | 1.0 | 4.0 | 0.00 | 0.00 | 0.00 | 42 | 1005.5 |
| 20260831205513 | 83 | 215 | 1.0 | 5.0 | 0.00 | 0.00 | 0.00 | 44 | 1005.6 |
| 20260831205014 | 82 | 215 | 1.0 | 5.0 | 0.00 | 0.00 | 0.00 | 45 | 1005.7 |
| 20260831204512 | 82 | 188 | 1.0 | 5.0 | 0.00 | 0.00 | 0.00 | 46 | 1005.7 |
| 20260831204011 | 83 | 148 | 2.0 | 5.0 | 0.00 | 0.00 | 0.00 | 42 | 1005.9 |
| 20260831203512 | 82 | 206 | 0.0 | 5.0 | 0.00 | 0.00 | 0.00 | 45 | 1005.9 |
| 20260831203009 | 82 | 134 | 0.0 | 5.0 | 0.00 | 0.00 | 0.00 | 45 | 1005.9 |
| 20260831202508 | 82 | 128 | 2.0 | 4.0 | 0.00 | 0.00 | 0.00 | 44 | 1006.0 |
| 20260831202008 | 82 | 136 | 0.0 | 4.0 | 0.00 | 0.00 | 0.00 | 45 | 1006.1 |
| 20260831201510 | 83 | 136 | 2.0 | 5.0 | 0.00 | 0.00 | 0.00 | 43 | 1006.1 |
| 20260831201008 | 83 | 215 | 1.0 | 5.0 | 0.00 | 0.00 | 0.00 | 44 | 1006.2 |
| 20260831200505 | 82 | 215 | 1.0 | 8.0 | 0.00 | 0.00 | 0.00 | 46 | 1006.2 |
| 20260831200003 | 83 | 158 | 3.0 | 8.0 | 0.00 | 0.00 | 0.00 | 44 | 1006.3 |
| 20260831195502 | 82 | 198 | 2.0 | 6.0 | 0.00 | 0.00 | 0.00 | 46 | 1006.3 |
| 20260831195001 | 82 | 230 | 1.0 | 4.0 | 0.00 | 0.00 | 0.00 | 44 | 1006.4 |
| 20260831194637 | 81 | 270 | 1.0 | 3.0 | 0.00 | 0.00 | 0.00 | 46 | 1006.4 |
| 20260831194059 | 80 | 275 | 1.0 | 3.0 | 0.00 | 0.00 | 0.00 | 47 | 1006.4 |
| 20260831193558 | 79 | 294 | 0.0 | 3.0 | 0.00 | 0.00 | 0.00 | 48 | 1006.5 |
| 20260831193101 | 78 | 294 | 2.0 | 3.0 | 0.00 | 0.00 | 0.00 | 49 | 1006.7 |
| 20260831192556 | 78 | 294 | 0.0 | 4.0 | 0.00 | 0.00 | 0.00 | 48 | 1006.7 |
| 20260831192056 | 80 | 294 | 1.0 | 4.0 | 0.00 | 0.00 | 0.00 | 48 | 1006.8 |
| 20260831191554 | 79 | 294 | 1.0 | 4.0 | 0.00 | 0.00 | 0.00 | 50 | 1006.9 |
| 20260831191056 | 79 | 294 | 0.0 | 4.0 | 0.00 | 0.00 | 0.00 | 48 | 1006.9 |
| 20260831190554 | 79 | 290 | 1.0 | 4.0 | 0.00 | 0.00 | 0.00 | 48 | 1007.0 |
| 20260831190057 | 78 | 227 | 1.0 | 4.0 | 0.00 | 0.00 | 0.00 | 51 | 1007.1 |
| 20260831185549 | 77 | 310 | 1.0 | 5.0 | 0.00 | 0.00 | 0.00 | 51 | 1007.3 |
| 20260831185048 | 77 | 304 | 3.0 | 5.0 | 0.00 | 0.00 | 0.00 | 51 | 1007.3 |
| 20260831184548 | 77 | 301 | 1.0 | 2.0 | 0.00 | 0.00 | 0.00 | 53 | 1007.3 |
| 20260831184051 | 76 | 301 | 0.0 | 3.0 | 0.00 | 0.00 | 0.00 | 53 | 1007.3 |
| 20260831183547 | 76 | 301 | 2.0 | 4.0 | 0.00 | 0.00 | 0.00 | 54 | 1007.5 |
| 20260831183054 | 77 | 301 | 2.0 | 4.0 | 0.00 | 0.00 | 0.00 | 53 | 1007.5 |
| 20260831182545 | 76 | 94 | 1.0 | 4.0 | 0.00 | 0.00 | 0.00 | 55 | 1007.6 |
| 20260831182049 | 76 | 94 | 1.0 | 4.0 | 0.00 | 0.00 | 0.00 | 53 | 1007.7 |
| 20260831181544 | 78 | 215 | 2.0 | 4.0 | 0.00 | 0.00 | 0.00 | 50 | 1007.8 |
| 20260831181042 | 78 | 209 | 0.0 | 3.0 | 0.00 | 0.00 | 0.00 | 52 | 1007.8 |
| 20260831180540 | 77 | 209 | 0.0 | 4.0 | 0.00 | 0.00 | 0.00 | 55 | 1007.8 |
| 20260831180046 | 76 | 246 | 2.0 | 4.0 | 0.00 | 0.00 | 0.00 | 54 | 1007.9 |
| 20260831175538 | 75 | 322 | 1.0 | 4.0 | 0.00 | 0.00 | 0.00 | 56 | 1008.0 |
| 20260831175037 | 75 | 58 | 1.0 | 2.0 | 0.00 | 0.00 | 0.00 | 57 | 1008.1 |
| 20260831174539 | 74 | 65 | 0.0 | 2.0 | 0.00 | 0.00 | 0.00 | 58 | 1008.2 |
| 20260831174036 | 73 | 65 | 0.0 | 3.0 | 0.00 | 0.00 | 0.00 | 59 | 1008.2 |
| 20260831173541 | 73 | 65 | 2.0 | 3.0 | 0.00 | 0.00 | 0.00 | 57 | 1008.2 |
| 20260831173036 | 74 | 333 | 1.0 | 3.0 | 0.00 | 0.00 | 0.00 | 57 | 1008.2 |
| 20260831172533 | 74 | 308 | 0.0 | 2.0 | 0.00 | 0.00 | 0.00 | 58 | 1008.2 |
| 20260831172032 | 72 | 306 | 0.0 | 4.0 | 0.00 | 0.00 | 0.00 | 63 | 1008.3 |
| 20260831171531 | 71 | 306 | 1.0 | 4.0 | 0.00 | 0.00 | 0.00 | 61 | 1008.4 |
| 20260831171031 | 72 | 306 | 1.0 | 4.0 | 0.00 | 0.00 | 0.00 | 59 | 1008.5 |
| 20260831170530 | 73 | 302 | 2.0 | 4.0 | 0.00 | 0.00 | 0.00 | 59 | 1008.5 |
| 20260831170038 | 71 | 309 | 0.0 | 4.0 | 0.00 | 0.00 | 0.00 | 63 | 1008.5 |
| 20260831165531 | 70 | 309 | 2.0 | 4.0 | 0.00 | 0.00 | 0.00 | 63 | 1008.5 |
| 20260831165025 | 69 | 5 | 1.0 | 3.0 | 0.00 | 0.00 | 0.00 | 65 | 1008.6 |
| 20260831164525 | 68 | 15 | 0.0 | 3.0 | 0.00 | 0.00 | 0.00 | 67 | 1008.7 |
| 20260831164026 | 66 | 12 | 1.0 | 4.0 | 0.00 | 0.00 | 0.00 | 69 | 1008.7 |
| 20260831163522 | 66 | 5 | 1.0 | 4.0 | 0.00 | 0.00 | 0.00 | 68 | 1008.8 |
| 20260831163021 | 66 | 343 | 1.0 | 3.0 | 0.00 | 0.00 | 0.00 | 69 | 1008.8 |
| 20260831162520 | 65 | 344 | 1.0 | 3.0 | 0.00 | 0.00 | 0.00 | 71 | 1008.9 |
| 20260831162019 | 64 | 344 | 1.0 | 4.0 | 0.00 | 0.00 | 0.00 | 71 | 1008.9 |
| 20260831161519 | 64 | 322 | 1.0 | 4.0 | 0.00 | 0.00 | 0.00 | 71 | 1008.9 |
| 20260831161017 | 64 | 355 | 2.0 | 4.0 | 0.00 | 0.00 | 0.00 | 72 | 1008.9 |
| 20260831160516 | 63 | 338 | 1.0 | 4.0 | 0.00 | 0.00 | 0.00 | 74 | 1009.0 |
| 20260831160016 | 62 | 344 | 0.0 | 8.0 | 0.00 | 0.00 | 0.00 | 74 | 1009.0 |
| 20260831155515 | 62 | 288 | 2.0 | 8.0 | 0.00 | 0.00 | 0.00 | 75 | 1009.1 |
| 20260831155015 | 61 | 304 | 1.0 | 5.0 | 0.00 | 0.00 | 0.00 | 76 | 1009.0 |
| 20260831154528 | 60 | 304 | 2.0 | 5.0 | 0.00 | 0.00 | 0.00 | 76 | 1009.0 |
| 20260831154018 | 60 | 304 | 2.0 | 7.0 | 0.00 | 0.00 | 0.00 | 77 | 1009.0 |
| 20260831153513 | 59 | 302 | 3.0 | 7.0 | 0.00 | 0.00 | 0.00 | 78 | 1009.0 |
| 20260831153013 | 59 | 292 | 1.0 | 5.0 | 0.00 | 0.00 | 0.00 | 78 | 1009.0 |
| 20260831152513 | 58 | 327 | 0.0 | 2.0 | 0.00 | 0.00 | 0.00 | 80 | 1009.0 |
| 20260831152015 | 58 | 327 | 0.0 | 2.0 | 0.00 | 0.00 | 0.00 | 80 | 1009.1 |
| 20260831151512 | 58 | 327 | 0.0 | 2.0 | 0.00 | 0.00 | 0.00 | 80 | 1009.2 |
| 20260831151015 | 58 | 327 | 0.0 | 3.0 | 0.00 | 0.00 | 0.00 | 81 | 1009.3 |
| 20260831150511 | 57 | 327 | 1.0 | 3.0 | 0.00 | 0.00 | 0.00 | 82 | 1009.4 |
| 20260831150012 | 57 | 327 | 0.0 | 2.0 | 0.00 | 0.00 | 0.00 | 82 | 1009.4 |
| 20260831145515 | 56 | 327 | 0.0 | 3.0 | 0.00 | 0.00 | 0.00 | 82 | 1009.3 |
| 20260831145010 | 56 | 327 | 2.0 | 3.0 | 0.00 | 0.00 | 0.00 | 83 | 1009.4 |
| 20260831144509 | 56 | 327 | 0.0 | 2.0 | 0.00 | 0.00 | 0.00 | 82 | 1009.2 |
| 20260831144015 | 56 | 327 | 0.0 | 2.0 | 0.00 | 0.00 | 0.00 | 82 | 1009.2 |
| 20260831143509 | 56 | 327 | 0.0 | 2.0 | 0.00 | 0.00 | 0.00 | 83 | 1009.2 |
| 20260831143008 | 55 | 327 | 0.0 | 2.0 | 0.00 | 0.00 | 0.00 | 83 | 1009.2 |
| 20260831142508 | 55 | 327 | 0.0 | 0.0 | 0.00 | 0.00 | 0.00 | 81 | 1009.2 |
| 20260831142011 | 55 | 327 | 0.0 | 0.0 | 0.00 | 0.00 | 0.00 | 82 | 1009.3 |
| 20260831141508 | 55 | 327 | 0.0 | 0.0 | 0.00 | 0.00 | 0.00 | 83 | 1009.3 |
| 20260831141006 | 55 | 327 | 0.0 | 0.0 | 0.00 | 0.00 | 0.00 | 81 | 1009.3 |
| 20260831140506 | 55 | 327 | 0.0 | 0.0 | 0.00 | 0.00 | 0.00 | 82 | 1009.3 |
| 20260831140006 | 55 | 327 | 0.0 | 0.0 | 0.00 | 0.00 | 0.00 | 81 | 1009.3 |
| 20260831135509 | 56 | 327 | 0.0 | 0.0 | 0.00 | 0.00 | 0.00 | 81 | 1009.2 |
| 20260831135005 | 56 | 327 | 0.0 | 0.0 | 0.00 | 0.00 | 0.00 | 80 | 1009.3 |
| 20260831134505 | 56 | 327 | 0.0 | 0.0 | 0.00 | 0.00 | 0.00 | 79 | 1009.2 |
| 20260831134006 | 56 | 327 | 0.0 | 0.0 | 0.00 | 0.00 | 0.00 | 79 | 1009.3 |
| 20260831133503 | 56 | 327 | 0.0 | 0.0 | 0.00 | 0.00 | 0.00 | 79 | 1009.3 |
| 20260831133008 | 56 | 327 | 0.0 | 0.0 | 0.00 | 0.00 | 0.00 | 77 | 1009.3 |
| 20260831132503 | 56 | 327 | 0.0 | 0.0 | 0.00 | 0.00 | 0.00 | 78 | 1009.4 |
| 20260831132002 | 56 | 327 | 0.0 | 0.0 | 0.00 | 0.00 | 0.00 | 79 | 1009.4 |
| 20260831131502 | 56 | 327 | 0.0 | 0.0 | 0.00 | 0.00 | 0.00 | 78 | 1009.4 |
| 20260831131002 | 56 | 327 | 0.0 | 0.0 | 0.00 | 0.00 | 0.00 | 77 | 1009.4 |
| 20260831130600 | 56 | 327 | 0.0 | 0.0 | 0.00 | 0.00 | 0.00 | 79 | 1009.4 |
| 20260831130109 | 56 | 327 | 0.0 | 3.0 | 0.00 | 0.00 | 0.00 | 79 | 1009.5 |
| 20260831125559 | 56 | 327 | 0.0 | 3.0 | 0.00 | 0.00 | 0.00 | 79 | 1009.5 |
| 20260831125059 | 56 | 327 | 0.0 | 1.0 | 0.00 | 0.00 | 0.00 | 79 | 1009.5 |
| 20260831124607 | 56 | 327 | 0.0 | 2.0 | 0.00 | 0.00 | 0.00 | 79 | 1009.5 |
| 20260831124057 | 56 | 327 | 0.0 | 2.0 | 0.00 | 0.00 | 0.00 | 79 | 1009.5 |
| 20260831123557 | 56 | 327 | 0.0 | 0.0 | 0.00 | 0.00 | 0.00 | 79 | 1009.6 |
| 20260831123057 | 57 | 327 | 0.0 | 0.0 | 0.00 | 0.00 | 0.00 | 79 | 1009.6 |
| 20260831122559 | 57 | 327 | 0.0 | 0.0 | 0.00 | 0.00 | 0.00 | 79 | 1009.7 |
| 20260831122055 | 57 | 327 | 0.0 | 0.0 | 0.00 | 0.00 | 0.00 | 78 | 1009.7 |
| 20260831121555 | 57 | 327 | 0.0 | 0.0 | 0.00 | 0.00 | 0.00 | 78 | 1009.7 |
| 20260831121052 | 57 | 327 | 0.0 | 2.0 | 0.00 | 0.00 | 0.00 | 78 | 1009.7 |
| 20260831120552 | 58 | 327 | 0.0 | 2.0 | 0.00 | 0.00 | 0.00 | 77 | 1009.7 |
| 20260831120055 | 58 | 327 | 0.0 | 0.0 | 0.00 | 0.00 | 0.00 | 76 | 1009.8 |
| 20260831115549 | 58 | 327 | 0.0 | 0.0 | 0.00 | 0.00 | 0.00 | 76 | 1009.8 |
| 20260831115048 | 58 | 327 | 0.0 | 1.0 | 0.00 | 0.00 | 0.00 | 74 | 1009.8 |
| 20260831114548 | 59 | 327 | 0.0 | 2.0 | 0.00 | 0.00 | 0.00 | 75 | 1009.9 |
| 20260831114048 | 59 | 327 | 0.0 | 3.0 | 0.00 | 0.00 | 0.00 | 75 | 1009.9 |
| 20260831113546 | 59 | 327 | 1.0 | 3.0 | 0.00 | 0.00 | 0.00 | 75 | 1009.9 |
| 20260831113048 | 59 | 332 | 0.0 | 2.0 | 0.00 | 0.00 | 0.00 | 74 | 1009.9 |